Regional Weather Roundup
Issued by NWS

Home | Current Version | Previous Version | Text Only | Print | Product List | Glossary On
Versions: 1 2 3 4 5 6 7 8 9 10 11 12 13 14 15 16 17 18 19 20 21 22 23 24 25 26 27 28 29 30 31 32 33 34 35 36 37 38 39 40 41 42 43 44 45 46 47 48 49 50
000
ASUS46 KSTO 040304
RWRCA

NORTHERN AND CENTRAL CA REGIONAL WEATHER ROUNDUP
NATIONAL WEATHER SERVICE SACRAMENTO CA
800 PM PDT SUN MAY 03 2015

NOTE: FAIR INDICATES FEW OR NO CLOUDS BELOW 12,000 FEET WITH NO
SIGNIFICANT WEATHER AND/OR OBSTRUCTIONS TO VISIBILITY.

CAZ001-003-040400-
NORTHWEST AREA

CITY           SKY/WX    TMP DP  RH WIND       PRES   REMARKS
CRESCENT CITY  CLOUDY    49  46  90 NW6       29.90S FOG
UKIAH          CLEAR     64  51  62 E3        29.83R
$$

CAZ006-505>513-040400-
BAY AREA

CITY           SKY/WX    TMP DP  RH WIND       PRES   REMARKS
SANTA ROSA     MOCLDY    53  47  79 S6        29.88S
SAN RAFAEL     N/A       57  MM  MM MISG
NAPA           PTCLDY    53  48  83 W16       29.88R
CONCORD        CLEAR     55  47  74 W14       29.87R
OAKLAND CITY   N/A       58  MM  MM MISG
OAKLAND        PTCLDY    56  47  71 W13       29.90R
SAN FRAN CITY  N/A       54  MM  76 MISG
SAN FRAN ARPT  PTCLDY    56  46  69 SW14      29.90R
LIVERMORE      CLEAR     58  48  69 W14       29.87R
HAYWARD        CLEAR     55  49  80 NW12      29.89S
REDWOOD CITY   N/A       MM  MM  MM MISG
MOFFETT ARPT   CLEAR    N/A N/A N/A NW7       29.88R
SAN JOSE ARPT  PTCLDY    59  48  67 NW13      29.88R
$$
CAZ034-037-514>518-040400-
CENTRAL COAST

CITY           SKY/WX    TMP DP  RH WIND       PRES   REMARKS
WATSONVILLE    CLOUDY    54  47  77 W7        29.92S
SALINAS        CLEAR     58  46  64 W7        29.91S
MONTEREY       PTCLDY    56  46  69 W7        29.92R
SAN LUIS OBISP CLEAR     55  46  71 NW10      29.90S
SANTA MARIA    CLEAR     56  46  69 NW8       29.91R
$$
CAZ015-016-040400-
NORTHERN SACRAMENTO VALLEY

CITY           SKY/WX    TMP DP  RH WIND       PRES   REMARKS
REDDING        CLEAR     79  51  37 S8        29.73R
RED BLUFF      CLEAR     79  50  36 SE9       29.74R
OROVILLE       CLEAR     75  48  38 S12       29.77R
$$
CAZ016>018-040400-
SOUTHERN SACRAMENTO VALLEY

CITY           SKY/WX    TMP DP  RH WIND       PRES   REMARKS
AUBURN         CLEAR     66  46  48 S6        29.84R
BEALE AFB      CLEAR     70  49  48 S14       29.76R
LINCOLN        FAIR      68  46  45 S9        29.78S
MARYSVILLE     CLEAR     70  47  43 SE16      29.76S
SAC INTL ARPT  CLEAR     63  50  62 S14       29.78R
MATHER AIRPORT NOT AVBL
DOWNTOWN SAC   N/A       62  MM  MM MISG
SAC EXEC ARPT  CLEAR     60  50  69 S8G18     29.81R
VACAVILLE      CLEAR     64  46  52 SW13G21   29.79R
$$
CAZ019>021-040400-
SAN JOAQUIN VALLEY

CITY           SKY/WX    TMP DP  RH WIND       PRES   REMARKS
STOCKTON       CLEAR     67  50  54 NW9       29.81R
MODESTO        CLEAR     73  48  41 NW14      29.78R
MERCED         CLEAR     70  42  36 W9        29.77S
LEMOORE        PTCLDY    78  23  13 SW15      29.75S
FRESNO         PTCLDY    82  26  13 S8        29.76R
HANFORD        CLEAR     77  28  16 SW6       29.76R
PORTERVILLE    CLEAR     75  34  22 W12       29.79R
BAKERSFIELD    CLEAR     77  38  24 NW14      29.77R
$$
CAZ011-012-071-040400-
NORTHERN MOUNTAINS

CITY           SKY/WX    TMP DP  RH WIND       PRES   REMARKS
YREKA          PTCLDY    69  36  29 N10       29.82R
MOUNT SHASTA   MOCLDY    66  39  37 CALM      29.86R
ALTURAS        CLEAR     66  31  27 W13       29.87R
$$
CAZ011-012-071-040400-
SIERRA NEVADA MTNS

CITY           SKY/WX    TMP DP  RH WIND       PRES   REMARKS
BLUE CANYON    CLEAR     58  32  37 SW3       29.99S
TRUCKEE        PTCLDY    55  28  35 W8        30.00R
TAHOE VLY ARPT CLOUDY    58  33  39 CALM      29.99R
MAMMOTH LAKES  MOCLDY    54  27  35 NW13      30.00S
$$




USA.gov is the U.S. government's official web portal to all federal, state and local government web resources and services.